N2ZVN Weather Reports


time (UTC)temp
C
wind
direction
speed
KPH
gust
KPH
rain 1hr
cm
rain 24hr
cm
rain mn
cm
humidity
%
barometer
mb
20260504050738 12 262 4.8 9.7 0.00 0.00 0.00 46 1008.6
20260504050235 12 253 4.8 6.4 0.00 0.00 0.00 46 1008.8
20260504045732 12 248 6.4 6.4 0.00 0.00 0.00 45 1008.8
20260504045227 12 248 6.4 6.4 0.00 0.00 0.00 45 1009.0
20260504044725 13 254 4.8 4.8 0.00 0.00 0.00 45 1008.9
20260504044222 13 262 8.0 9.7 0.00 0.00 0.00 45 1009.0
20260504043720 13 257 4.8 4.8 0.00 0.00 0.00 45 1009.0
20260504043216 13 249 9.7 14.5 0.00 0.00 0.00 44 1008.9
20260504042714 13 266 6.4 6.4 0.00 0.00 0.00 44 1009.0
20260504042210 13 233 3.2 4.8 0.00 0.00 0.00 45 1008.9
20260504041706 13 252 3.2 3.2 0.00 0.00 0.00 45 1008.9
20260504041202 12 235 9.7 12.9 0.00 0.00 0.00 45 1009.0
20260504040659 13 255 4.8 4.8 0.00 0.00 0.00 45 1009.1
20260504040156 13 255 4.8 4.8 0.00 0.00 0.00 45 1009.0
20260504035652 12 245 8.0 11.3 0.00 0.03 0.03 45 1008.9
20260504035150 12 268 6.4 4.8 0.00 0.03 0.03 45 1009.1
20260504034647 12 259 9.7 12.9 0.00 0.03 0.03 45 1008.9
20260504034144 12 234 4.8 4.8 0.00 0.03 0.03 47 1008.9
20260504033642 12 238 9.7 12.9 0.00 0.03 0.03 46 1008.9
20260504033139 12 238 9.7 12.9 0.00 0.03 0.03 46 1008.8
20260504032635 12 260 4.8 4.8 0.00 0.03 0.03 47 1008.8
20260504032133 12 227 4.8 4.8 0.00 0.03 0.03 46 1008.8
20260504031630 12 227 4.8 4.8 0.00 0.03 0.03 46 1008.8
20260504031126 12 239 8.0 9.7 0.00 0.03 0.03 46 1008.9
20260504030623 12 204 6.4 11.3 0.00 0.03 0.03 46 1009.0
20260504030119 12 241 6.4 6.4 0.00 0.03 0.03 47 1009.0
20260504025616 12 248 3.2 3.2 0.00 0.03 0.03 48 1009.2
20260504025113 12 267 4.8 6.4 0.00 0.03 0.03 48 1009.0
20260504024611 12 246 3.2 3.2 0.00 0.03 0.03 48 1008.9
20260504024107 12 246 3.2 3.2 0.00 0.03 0.03 51 1009.2
20260504023603 12 246 3.2 3.2 0.00 0.03 0.03 51 1009.2
20260504023059 12 246 3.2 3.2 0.00 0.03 0.03 51 1009.0
20260504022556 11 225 4.8 6.4 0.00 0.03 0.03 52 1009.4
20260504022052 11 225 4.8 6.4 0.00 0.03 0.03 52 1009.3
20260504021550 11 254 6.4 6.4 0.00 0.03 0.03 54 1009.2
20260504021046 11 251 4.8 9.7 0.00 0.03 0.03 58 1009.2
20260504020543 10 241 3.2 3.2 0.00 0.03 0.03 73 1009.2
20260504020040 10 241 3.2 3.2 0.00 0.03 0.03 73 1009.4
20260504015536 10 241 3.2 3.2 0.00 0.03 0.03 73 1009.4
20260504015032 9 293 0.0 0.0 0.00 0.03 0.03 89 1009.4
20260504014528 9 293 0.0 0.0 0.00 0.03 0.03 89 1009.4
20260504014026 9 293 0.0 0.0 0.00 0.03 0.03 89 1009.4
20260504013524 9 293 0.0 0.0 0.00 0.03 0.03 89 1009.5
20260504013020 9 293 0.0 0.0 0.00 0.03 0.03 89 1009.5
20260504012518 9 293 0.0 0.0 0.00 0.03 0.03 89 1009.6
20260504012016 9 293 0.0 0.0 0.00 0.03 0.03 89 1009.8
20260504011512 9 293 0.0 0.0 0.00 0.03 0.03 89 1009.6
20260504011008 8 293 0.0 0.0 0.00 0.03 0.03 91 1009.6
20260504010504 8 293 0.0 0.0 0.00 0.03 0.03 91 1009.4
20260504010000 8 293 0.0 0.0 0.00 0.03 0.03 91 1009.3
20260504005457 8 293 0.0 0.0 0.00 0.03 0.03 91 1009.6
20260504004954 8 293 0.0 0.0 0.00 0.03 0.03 91 1009.6
20260504004452 8 293 0.0 0.0 0.00 0.03 0.03 90 1009.7
20260504003949 9 293 0.0 0.0 0.00 0.03 0.03 90 1009.8
20260504003445 9 293 0.0 0.0 0.00 0.03 0.03 90 1009.9
20260504002942 9 293 0.0 0.0 0.00 0.03 0.03 89 1009.8
20260504002439 9 293 0.0 0.0 0.00 0.03 0.03 89 1009.9
20260504001936 9 293 0.0 0.0 0.00 0.03 0.03 88 1009.8
20260504001433 9 293 0.0 0.0 0.00 0.03 0.03 87 1009.9
20260504000930 9 293 1.6 1.6 0.00 0.03 0.03 85 1010.0
20260504000427 10 298 1.6 1.6 0.00 0.03 0.03 85 1010.0
20260503235924 10 304 0.0 0.0 0.13 0.03 0.03 84 1010.3
20260503235422 10 304 0.0 1.6 0.13 0.03 0.03 83 1010.3
20260503234919 10 304 0.0 1.6 0.00 0.00 0.00 81 1010.2
20260503234417 10 304 0.0 0.0 0.00 0.00 0.00 80 1010.4
20260503233915 10 304 0.0 1.6 0.00 0.00 0.00 79 1010.3
20260503233411 10 304 0.0 0.0 0.00 0.00 0.00 78 1010.3
20260503232907 10 304 0.0 1.6 0.00 0.00 0.00 75 1010.0
20260503232405 10 307 1.6 3.2 0.00 0.00 0.00 73 1010.2
20260503231902 10 309 3.2 3.2 0.00 0.00 0.00 71 1010.2
20260503231359 11 314 0.0 3.2 0.00 0.00 0.00 70 1010.1
20260503230855 11 166 6.4 11.3 0.00 0.00 0.00 66 1010.1
20260503230352 11 271 6.4 9.7 0.00 0.00 0.00 62 1010.2
20260503225850 11 218 6.4 9.7 0.00 0.00 0.00 59 1009.9
20260503225345 12 237 4.8 4.8 0.00 0.00 0.00 56 1010.0
20260503224842 12 240 4.8 4.8 0.00 0.00 0.00 55 1010.1
20260503224339 12 305 1.6 3.2 0.00 0.00 0.00 53 1009.8
20260503223837 12 263 3.2 4.8 0.00 0.00 0.00 52 1009.8
20260503223334 12 254 1.6 3.2 0.00 0.00 0.00 52 1009.8
20260503222830 12 247 4.8 11.3 0.00 0.00 0.00 51 1009.8
20260503222329 12 241 3.2 3.2 0.00 0.00 0.00 52 1009.6
20260503221826 12 252 6.4 6.4 0.00 0.00 0.00 50 1009.6
20260503221325 12 260 3.2 4.8 0.00 0.00 0.00 50 1009.7
20260503220821 12 246 3.2 6.4 0.00 0.00 0.00 50 1009.6
20260503220318 12 255 3.2 6.4 0.00 0.00 0.00 50 1009.8
20260503215814 12 232 6.4 6.4 0.00 0.00 0.00 49 1009.6
20260503215312 12 252 3.2 3.2 0.00 0.00 0.00 50 1009.5
20260503214809 12 235 3.2 6.4 0.00 0.00 0.00 49 1009.5
20260503214306 12 234 3.2 6.4 0.00 0.00 0.00 49 1009.6
20260503213804 12 260 4.8 4.8 0.00 0.00 0.00 47 1009.6
20260503213301 12 259 6.4 9.7 0.00 0.00 0.00 48 1009.4
20260503212758 12 247 3.2 3.2 0.00 0.00 0.00 47 1009.3
20260503212256 12 250 3.2 4.8 0.00 0.00 0.00 46 1009.6
20260503211753 12 243 4.8 11.3 0.00 0.00 0.00 45 1009.5
20260503211249 12 246 1.6 3.2 0.00 0.00 0.00 46 1009.4
20260503210744 12 247 3.2 4.8 0.00 0.00 0.00 45 1009.6
20260503210242 12 253 4.8 6.4 0.00 0.00 0.00 44 1009.5
20260503205742 12 251 3.2 11.3 0.00 0.00 0.00 44 1009.4
20260503205239 12 201 3.2 11.3 0.00 0.00 0.00 45 1009.5
20260503204735 12 252 3.2 4.8 0.00 0.00 0.00 43 1009.6
20260503204233 12 265 3.2 9.7 0.00 0.00 0.00 42 1009.5
20260503203731 13 231 8.0 11.3 0.00 0.00 0.00 41 1009.4
20260503203228 13 251 3.2 6.4 0.00 0.00 0.00 42 1010.0
20260503202725 13 232 6.4 14.5 0.00 0.00 0.00 41 1009.6
20260503202223 13 251 8.0 9.7 0.00 0.00 0.00 39 1009.8
20260503201720 13 252 3.2 9.7 0.00 0.00 0.00 41 1009.8
20260503201218 13 260 1.6 4.8 0.00 0.00 0.00 41 1009.9
20260503200714 13 243 4.8 9.7 0.00 0.00 0.00 39 1009.9
20260503200211 13 254 8.0 11.3 0.00 0.00 0.00 39 1010.0
20260503195707 13 214 3.2 11.3 0.00 0.00 0.00 38 1010.2
20260503195204 13 288 3.2 17.7 0.00 0.00 0.00 39 1010.4
20260503194701 13 263 11.3 12.9 0.00 0.00 0.00 37 1010.1
20260503194156 13 239 4.8 9.7 0.00 0.00 0.00 34 1010.4
20260503193653 14 261 3.2 11.3 0.00 0.00 0.00 35 1010.5
20260503193149 15 216 3.2 11.3 0.00 0.00 0.00 35 1010.5
20260503192645 14 237 3.2 6.4 0.00 0.00 0.00 36 1010.6
20260503192141 13 267 1.6 6.4 0.00 0.00 0.00 37 1010.7
20260503191638 13 257 6.4 14.5 0.00 0.00 0.00 35 1010.9
20260503191135 13 270 1.6 11.3 0.00 0.00 0.00 37 1011.0
20260503190632 13 263 4.8 12.9 0.00 0.00 0.00 38 1011.1
20260503190129 13 263 8.0 14.5 0.00 0.00 0.00 37 1011.2
20260503185625 13 252 1.6 9.7 0.00 0.00 0.00 37 1011.4
20260503185120 13 264 6.4 11.3 0.00 0.00 0.00 38 1011.4
20260503184616 13 258 16.1 22.5 0.00 0.00 0.00 35 1011.6
20260503184112 13 239 6.4 11.3 0.00 0.00 0.00 36 1011.4
20260503183609 13 243 9.7 12.9 0.00 0.00 0.00 35 1011.6
20260503183106 13 215 9.7 14.5 0.00 0.00 0.00 34 1011.7
20260503182605 13 234 9.7 11.3 0.00 0.00 0.00 36 1011.9
20260503182102 13 288 8.0 14.5 0.00 0.00 0.00 37 1011.8
20260503181559 13 229 3.2 4.8 0.00 0.00 0.00 38 1011.8
20260503181055 12 231 6.4 9.7 0.00 0.00 0.00 35 1012.0
20260503180553 13 262 3.2 9.7 0.00 0.00 0.00 36 1011.9
20260503180050 13 239 4.8 6.4 0.00 0.00 0.00 37 1012.0
20260503175547 13 246 9.7 11.3 0.00 0.00 0.00 36 1012.0
20260503175045 12 204 4.8 4.8 0.00 0.00 0.00 38 1012.0
20260503174542 13 257 1.6 9.7 0.00 0.00 0.00 41 1012.2
20260503174038 13 264 3.2 11.3 0.00 0.00 0.00 38 1012.2
20260503173533 12 290 3.2 4.8 0.00 0.00 0.00 38 1012.3
20260503173029 12 267 8.0 9.7 0.00 0.00 0.00 35 1012.4
20260503172527 12 309 3.2 4.8 0.00 0.00 0.00 39 1012.1
20260503172024 12 247 6.4 6.4 0.00 0.00 0.00 39 1012.3
20260503171521 12 216 3.2 6.4 0.00 0.00 0.00 38 1012.5
20260503171018 12 211 3.2 9.7 0.00 0.00 0.00 41 1012.5
20260503170514 12 272 1.6 4.8 0.00 0.00 0.00 48 1012.7
20260503150906 10 277 1.6 3.2 0.00 0.00 0.00 52 1013.7
20260503150403 10 268 6.4 9.7 0.00 0.00 0.00 50 1013.6
20260503131256 8 241 1.6 4.8 0.00 0.00 0.00 55 1014.7
20260503130754 8 225 1.6 4.8 0.00 0.00 0.00 54 1014.6
20260503130251 8 233 3.2 4.8 0.00 0.00 0.00 57 1014.8
20260503120217 6 225 3.2 3.2 0.00 0.00 0.00 49 1014.8
20260503110644 3 235 1.6 1.6 0.00 0.00 0.00 71 1014.6
20260503110142 2 234 1.6 1.6 0.00 0.00 0.00 70 1014.6
20260503100109 1 235 0.0 0.0 0.00 0.00 0.00 83 1014.4
20260503081458 2 236 1.6 1.6 0.00 0.00 0.00 80 1014.6
20260503080955 2 236 0.0 1.6 0.00 0.00 0.00 79 1014.6
20260503080451 2 236 0.0 0.0 0.00 0.00 0.00 78 1014.6
20260503072927 2 236 0.0 0.0 0.00 0.00 0.00 78 1014.5
20260503072425 2 236 0.0 1.6 0.00 0.00 0.00 79 1014.6
20260503071922 2 235 0.0 3.2 0.00 0.00 0.00 79 1014.5
20260503071419 2 234 0.0 0.0 0.00 0.00 0.00 80 1014.6
20260503070915 2 238 0.0 1.6 0.00 0.00 0.00 81 1014.6
20260503070412 2 238 0.0 0.0 0.00 0.00 0.00 80 1014.6
20260503060338 2 238 0.0 0.0 0.00 0.00 0.00 87 1014.8
20260503054826 2 238 0.0 0.0 0.00 0.00 0.00 88 1015.1
20260503054322 2 238 0.0 0.0 0.00 0.00 0.00 87 1014.8
20260503053820 2 238 0.0 0.0 0.00 0.00 0.00 85 1014.9
20260503053318 2 238 0.0 0.0 0.00 0.00 0.00 86 1015.1